SL-14 DEB, 45266

Orbit data source: Space-Track

SL-14 DEB, 45266 is space debris in LEO originally from a launch on Thu, 15 Aug 1991 UTC launched from the Plesetsk Missile And Space Complex (PKMTR). Debris objects in space refer to the collection of defunct objects orbiting the Earth. Examples of debris include non-operational satellites, rocket bodies, and fragments generated from explosions, collisions, or faulty payload assembly.

Loading next visibility...
Identifier
45266, 1991-056C
Orbit
LEO
Country
Flag of CISCIS
Related business
Manufacturer
Unknown
Mission
Spacecraft
Bus & Motor
Unknown
Mass
Unknown
Launch date (UTC)
1991-08-15 (34 years ago)
Launch vehicle
Unknown
Launch site
Plesetsk Missile And Space Complex (PKMTR)
Object type
Payload
Rocket body
Debris
Shape & HBR
Unknown shape, 0.5 m
Radar Cross Section
Medium (>0.1 m² and <1 m²)

Expand to show TLE details & history
Last TLE update: 17 hours ago

TLE from 17 hours ago
0 SL-14 DEB
1 45266U 91056C   25286.93308536 -.00000010  00000-0 -57574-4 0  9999
2 45266  82.5506 310.1572 0003667 320.1361  39.9492 13.18004033272682
Epoch: 2025-10-13T22:23Z
TLE epoch observation values (Epoch: 2025-10-13T22:23:38.575Z)
Latitude
-0.00002°
Longitude
-48.48229°
Altitude
1,193.034 km
Speed
7.258 km/s
True Right ascension
20h 40m 37s
True Declination
0° 00' 00"
Sunlit
Object was in daylight at epoch
Visualization orbit readout
Latitude
Unknown
Longitude
Unknown
Altitude
Unknown
Speed
Unknown
Apparent Right ascension
Unknown
Apparent Declination
Unknown
Sunlit
N/A
Visualization observer readout
Local Sidereal Time
10:00:04
Azimuth
Unknown
Elevation
Unknown
Doppler factor
Unknown
Orbital elements
Apogee altitude
1,192.372 km
Perigee altitude
1,186.822 km
Semi-major axis
7,567.734 km
Eccentricity
0.00037
Inclination
82.5506°
RAAN
310.1572°
Arg. of periapsis
320.1361°
True anomaly
39.97619°
Mean anomaly
39.9492°
Eccentric anomaly
39.96269°
Mean motion
3.29681 °/min
Orbital period
109.2 mins
BSTAR
-0.000057574
Loading maneuver chart data...
Computing Atmospheric mass density...
Loading historical data...
Loading historical data...
Loading historical data...
Loading historical data...
Loading historical data...
Loading historical data...
Loading historical data...

Documentation

Showing up to 5 results
|